Flag for Bosnia-Herzegovina Weather past 2 weeks in Mostar, Bosnia-Herzegovina

70 °F

Passing clouds.

Feels Like: 70 °F
Forecast: 56 / 62 °F
Wind: 2 mph from West

Location: Mostar

Current Time: Oct 9, 2015 at 6:41:33 PM

Latest Report: Oct 9, 2015 at 6:00 PM

Visibility: N/A

Pressure: 29.95 "Hg

Humidity: 69%

Dew point: 59 °F

Location of MostarLocation

Historic Weather in Mostar — Graph


Mostar temperature yesterday

Maximum temperature yesterday: 72 °F (at 3:00 PM)
Minimum temperature yesterday: 61 °F (at 1:00 AM)
Average temperature yesterday: 65 °F

Past Weeks' High & Low Weather Summary

High79 °F (Oct 2, 2:30 PM)100% (Sep 25, 7:30 AM)30.24 "Hg (Sep 25, 7:30 AM)
Low48 °F (Oct 6, 6:30 AM)35% (Sep 28, 1:30 PM)29.68 "Hg (Oct 7, 4:00 PM)
Average64 °F69%30.02 "Hg
* Reported Sep 24 5:00 PM — Oct 9 5:00 PM, Mostar, Weather by CustomWeather, © 2015

Note: Actual official high and low records may vary slightly from our data, if they occured in-between our weather recording intervals... More about our weather records


Mostar weather history for previous 24 hours

Time TempWeatherWind HumidityBarometerVisibility
5:00 PM
Fri, Oct 9
72 °FPassing clouds.2 mph65%29.95 "HgN/A
4:30 PM72 °FPassing clouds.3 mph65%29.95 "HgN/A
4:00 PM72 °FScattered clouds.5 mph65%29.98 "HgN/A
3:30 PM72 °FScattered clouds.6 mph65%29.95 "HgN/A
3:00 PM72 °FScattered clouds.9 mph69%29.95 "HgN/A
2:30 PM72 °FScattered clouds.6 mph65%29.95 "HgN/A
2:00 PM72 °FScattered clouds.5 mph61%29.98 "HgN/A
1:30 PM72 °FPassing clouds.3 mph57%29.98 "HgN/A
1:00 PM72 °FPassing clouds.3 mph57%29.98 "HgN/A
12:30 PM72 °FPassing clouds.3 mph57%29.98 "HgN/A
12:00 PM70 °FPassing clouds.3 mph64%29.98 "HgN/A
11:30 AM68 °FPassing clouds.2 mph69%30.01 "HgN/A
11:00 AM66 °FPassing clouds.2 mph78%30.01 "HgN/A
10:30 AM66 °FPassing clouds.1 mph78%30.01 "HgN/A
10:00 AM64 °FPassing clouds.2 mph88%30.01 "HgN/A
9:30 AM63 °FPassing clouds.2 mph88%30.01 "HgN/A
9:00 AM61 °FScattered clouds.2 mph94%30.01 "HgN/A
8:30 AM59 °FScattered clouds.2 mph100%30.01 "HgN/A
8:00 AM59 °FBroken clouds.2 mph94%29.98 "HgN/A
7:30 AM59 °FPassing clouds.1 mph94%29.98 "HgN/A
7:00 AM59 °FPartly cloudy.3 mph94%29.98 "HgN/A
6:00 AM59 °FLight rain. Partly cloudy.3 mph94%29.98 "HgN/A
5:00 AM59 °FPassing clouds.2 mph94%29.98 "HgN/A
4:30 AM59 °FLight rain. Passing clouds.3 mph94%29.98 "HgN/A
4:00 AM59 °FPassing clouds.2 mph94%29.95 "HgN/A
3:00 AM59 °FPassing clouds.3 mph94%29.98 "HgN/A
2:00 AM59 °FPassing clouds.2 mph94%29.98 "HgN/A
1:00 AM59 °FPassing clouds.1 mph94%29.98 "HgN/A
12:00 AM61 °FPassing clouds.3 mph94%29.98 "HgN/A
11:00 PM
Thu, Oct 8
61 °FPassing clouds.2 mph94%29.98 "HgN/A
10:00 PM61 °FThunderstorms. Partly cloudy.1 mph94%29.95 "HgN/A
9:00 PM64 °FThunderstorms. Partly cloudy.5 mph83%29.95 "Hg3 mi
8:00 PM64 °FThunderstorms. Passing clouds.2 mph83%29.92 "HgN/A
7:00 PM66 °FScattered clouds.5 mph78%29.89 "HgN/A
6:00 PM68 °FScattered clouds.3 mph73%29.89 "HgN/A
Weather by CustomWeather, © 2015

See weather overviewHow to use our weather pages